EW1577 Weather Reports


time (UTC)temp
F
wind
direction
speed
knots
gust
knots
rain 1hr
in
rain 24hr
in
rain mn
in
humidity
%
barometer
mb
20260507005729 49 348 0.0 0.9 0.00 0.66 0.30 68 1012.9
20260507004731 50 355 0.0 0.0 0.00 0.67 0.30 67 1012.8
20260507003729 51 346 0.0 0.9 0.00 0.68 0.30 63 1012.7
20260507002729 52 353 0.0 2.6 0.00 0.69 0.30 59 1012.6
20260507001730 53 338 0.0 1.7 0.00 0.69 0.30 58 1012.5
20260507000729 54 346 0.0 2.6 0.00 0.70 0.30 59 1012.3
20260506235730 54 345 0.0 1.7 0.00 0.70 0.30 59 1012.4
20260506234728 54 358 1.7 1.7 0.00 0.70 0.30 56 1012.4
20260506233732 54 343 0.0 0.9 0.00 0.70 0.30 55 1012.2
20260506231711 55 356 0.0 1.7 0.00 0.70 0.30 54 1012.5
20260506225709 55 341 0.0 2.6 0.00 0.70 0.30 55 1012.6
20260506224701 55 36 1.7 2.6 0.00 0.71 0.30 53 1012.8
20260506222702 55 353 0.0 2.6 0.00 0.73 0.30 53 1012.9
20260506221701 56 3 0.9 1.7 0.00 0.75 0.30 52 1012.7
20260506220701 56 348 0.0 9.6 0.00 0.79 0.30 52 1012.3
20260506215701 56 21 1.7 2.6 0.00 0.81 0.30 50 1012.2
20260506214703 56 322 1.7 5.2 0.00 0.88 0.30 48 1012.0
20260506213700 56 285 2.6 3.5 0.00 0.91 0.30 49 1012.2
20260506212659 57 39 0.0 3.5 0.00 0.91 0.30 52 1011.9
20260506211659 57 337 1.7 5.2 0.00 0.91 0.30 50 1011.7
20260506205640 57 321 0.9 1.7 0.00 0.91 0.30 51 1011.7
20260506204632 57 350 0.0 6.1 0.00 0.91 0.30 52 1011.6
20260506203630 58 30 0.9 3.5 0.00 0.91 0.30 50 1011.9
20260506202630 58 344 0.9 5.2 0.00 0.91 0.30 52 1011.3
20260506201630 58 270 1.7 7.0 0.00 0.91 0.30 50 1011.5
20260506200630 59 352 0.0 7.8 0.00 0.91 0.30 51 1011.6
20260506194629 60 324 3.5 5.2 0.00 0.91 0.30 45 1011.4
20260506193620 60 339 3.5 7.0 0.00 0.91 0.30 48 1011.3
20260506192619 61 6 0.9 9.6 0.00 0.91 0.30 51 1011.2
20260506191613 62 326 1.7 3.5 0.00 0.91 0.30 45 1011.1
20260506190615 62 56 0.9 6.1 0.00 0.91 0.30 50 1011.3
20260506185614 62 332 0.0 8.7 0.00 0.91 0.30 51 1011.3
20260506184606 60 358 0.0 5.2 0.00 0.91 0.30 50 1011.4
20260506183601 59 357 0.9 3.5 0.00 0.91 0.30 50 1011.2
20260506182601 59 255 0.9 3.5 0.00 0.91 0.30 48 1011.4
20260506181609 59 339 0.9 6.1 0.00 0.91 0.30 49 1011.5
20260506180603 59 327 1.7 7.0 0.00 0.91 0.30 48 1011.5
20260506175601 59 349 0.0 7.8 0.00 0.91 0.30 50 1011.3
20260506173602 60 314 1.7 5.2 0.00 0.91 0.30 51 1011.8
20260506172601 60 16 0.9 5.2 0.00 0.91 0.30 51 1011.5
20260506171602 58 12 2.6 7.0 0.00 0.91 0.30 53 1011.6
20260506170600 60 5 0.0 5.2 0.00 0.91 0.30 57 1011.5
20260506165559 59 16 0.0 3.5 0.00 0.91 0.30 56 1011.3
20260506164552 59 49 0.9 3.5 0.00 0.91 0.30 54 1011.5
20260506163548 58 353 0.0 3.5 0.00 0.91 0.30 59 1011.9
20260506162541 57 4 0.0 6.1 0.00 0.91 0.30 60 1011.6
20260506161530 56 333 1.7 3.5 0.00 0.91 0.30 57 1011.8
20260506160531 56 318 0.0 5.2 0.00 0.91 0.30 57 1011.4
20260506155529 55 352 0.9 2.6 0.00 0.91 0.30 66 1011.3
20260506154530 54 335 0.9 5.2 0.00 0.91 0.30 67 1011.3
20260506151530 54 344 0.0 1.7 0.00 0.91 0.30 70 1011.0
20260506145529 51 1 0.0 1.7 0.00 0.91 0.30 77 1011.0
20260506144529 50 59 0.0 1.7 0.00 0.91 0.30 81 1010.7
20260506143527 49 330 0.0 3.5 0.00 0.91 0.30 82 1010.9
20260506141522 46 326 0.0 2.6 0.00 0.91 0.30 94 1010.2
20260506140517 46 346 0.9 2.6 0.00 0.91 0.30 97 1010.2
20260506135513 47 340 0.0 2.6 0.00 0.91 0.30 98 1010.1
20260506134506 47 1 0.0 3.5 0.00 0.91 0.30 98 1009.9
20260506133504 46 339 0.0 5.2 0.00 0.91 0.30 99 1009.9
20260506132513 46 1 0.9 6.1 0.00 0.91 0.30 99 1009.5
20260506131505 48 347 1.7 3.5 0.00 0.91 0.30 99 1009.7
20260506130501 47 330 0.9 2.6 0.00 0.91 0.30 99 1009.8
20260506125502 47 352 0.0 2.6 0.00 0.91 0.30 99 1009.4
20260506124453 47 321 1.7 2.6 0.00 0.91 0.30 99 1009.6
20260506123453 47 344 0.0 2.6 0.00 0.91 0.30 99 1008.9
20260506121447 47 325 0.0 2.6 0.00 0.91 0.30 99 1008.4
20260506115446 46 348 0.0 0.9 0.00 0.91 0.30 99 1008.5
20260506114442 46 338 0.0 1.7 0.00 0.91 0.30 99 1009.0
20260506113442 46 343 0.0 0.9 0.00 0.91 0.30 99 1008.6
20260506111431 46 348 0.0 2.6 0.00 0.91 0.30 99 1007.7
20260506105429 46 51 0.0 3.5 0.00 0.91 0.30 99 1007.5
20260506104429 46 358 0.0 2.6 0.00 0.91 0.30 99 1007.8
20260506103430 46 333 0.0 0.9 0.00 0.91 0.30 99 1007.8
20260506102428 46 345 0.0 0.9 0.00 0.91 0.30 99 1007.2
20260506101429 46 345 0.0 1.7 0.01 0.91 0.30 99 1007.4
20260506100429 46 1 0.0 1.7 0.01 0.91 0.30 99 1006.6
20260506095429 46 333 0.0 1.7 0.02 0.90 0.30 99 1006.4
20260506093416 46 347 0.0 3.5 0.05 0.90 0.30 99 1006.5
20260506092406 46 350 0.0 1.7 0.07 0.90 0.29 99 1006.8
20260506091411 46 339 0.0 5.2 0.08 0.90 0.29 99 1006.5
20260506090406 46 27 0.0 3.5 0.08 0.90 0.29 99 1006.3
20260506085402 46 352 0.0 2.6 0.08 0.82 0.28 99 1006.6
20260506084401 46 343 0.0 3.5 0.07 0.82 0.27 99 1007.0
20260506083401 46 0 0.0 2.6 0.05 0.82 0.25 99 1006.6
20260506082401 47 358 0.0 5.2 0.03 0.82 0.23 99 1006.3
20260506081402 47 345 0.9 2.6 0.02 0.82 0.21 99 1006.4
20260506080401 47 18 1.7 3.5 0.03 0.82 0.21 99 1006.0
20260506073401 48 350 1.7 2.6 0.06 0.79 0.20 99 1006.0
20260506072401 48 321 0.9 1.7 0.08 0.79 0.20 99 1005.6
20260506071401 48 354 0.0 2.6 0.08 0.79 0.19 99 1005.6
20260506070359 49 342 0.0 2.6 0.09 0.79 0.18 99 1005.8
20260506062340 50 328 1.7 2.6 0.10 0.70 0.12 99 1006.0
20260506060336 50 345 0.0 1.7 0.09 0.70 0.09 99 1005.9
20260506051322 51 344 0.0 0.9 0.01 0.61 0.00 99 1006.3
20260506050323 51 347 0.0 0.9 0.00 0.61 0.00 99 1006.2
20260506044317 51 346 0.0 0.9 0.02 0.61 0.00 98 1006.2
20260506043312 51 327 0.9 0.9 0.03 0.61 0.00 98 1006.5
20260506042312 51 351 0.9 2.6 0.06 0.61 0.00 98 1006.5
20260506041311 51 341 0.0 2.6 0.10 0.61 0.00 98 1006.7
20260506032305 58 328 1.7 2.6 0.16 0.46 0.55 98 1007.1
20260506031300 58 229 1.7 2.6 0.15 0.46 0.51 98 1007.3
20260506030301 58 338 0.0 2.6 0.14 0.46 0.47 98 1007.4
20260506025305 58 317 0.0 2.6 0.13 0.33 0.44 98 1007.2
20260506024300 58 7 1.7 3.5 0.15 0.33 0.44 98 1007.0
20260506023301 58 344 0.0 5.2 0.15 0.33 0.42 98 1007.2
20260506022301 59 298 0.9 2.6 0.13 0.33 0.38 98 1007.3
20260506020301 59 4 0.0 0.9 0.09 0.33 0.34 98 1007.4
20260506015302 59 342 0.0 1.7 0.07 0.25 0.31 98 1007.3
20260506013251 59 336 0.0 1.7 0.05 0.25 0.26 98 1007.0
20260506011239 59 344 0.0 0.9 0.03 0.25 0.25 98 1006.6